This is the latest recevied weather packets stored in our database for station/object N4QB-13. If no packets are shown the sender has not sent any weather packets the latest 10 day(s).
| Time | Temp. | Humidity | Pressure | Rain* | Wind** | Luminosity | Snow |
|---|---|---|---|---|---|---|---|
| 1777329483 | 26.67° C | 60% | 1015.6 hPa | 0 mm | - | 34 W/m² | - |
| 1777329180 | 26.67° C | 59% | 1015.4 hPa | 0 mm | - | 36 W/m² | - |
| 1777328878 | 27.22° C | 59% | 1015.2 hPa | 0 mm | - | 50 W/m² | - |
| 1777328576 | 26.67° C | 59% | 1015.3 hPa | 0 mm | - | 149 W/m² | - |
| 1777328274 | 27.22° C | 58% | 1015.4 hPa | 0 mm | - | 151 W/m² | - |
| 1777327972 | 27.22° C | 58% | 1015.6 hPa | 0 mm | - | 174 W/m² | - |
| 1777327670 | 27.22° C | 58% | 1015.1 hPa | 0 mm | - | 182 W/m² | - |
| 1777327366 | 27.22° C | 58% | 1015.2 hPa | 0 mm | - | 196 W/m² | - |
| 1777327064 | 27.22° C | 58% | 1015.3 hPa | 0 mm | - | 216 W/m² | - |
| 1777326761 | 27.22° C | 59% | 1015.1 hPa | 0 mm | - | 230 W/m² | - |
| 1777326457 | 27.22° C | 58% | 1015.1 hPa | 0 mm | - | 245 W/m² | - |
| 1777326156 | 27.22° C | 58% | 1015.4 hPa | 0 mm | - | 289 W/m² | - |
| 1777325853 | 27.22° C | 58% | 1015.4 hPa | 0 mm | - | 289 W/m² | - |
| 1777325552 | 27.22° C | 58% | 1015.4 hPa | 0 mm | - | 289 W/m² | - |
| 1777325249 | 27.78° C | 58% | 1015.2 hPa | 0 mm | - | 291 W/m² | - |
| 1777324945 | 27.78° C | 59% | 1015.2 hPa | 0 mm | - | 323 W/m² | - |
| 1777324643 | 27.22° C | 59% | 1015.2 hPa | 0 mm | - | 332 W/m² | - |
| 1777324341 | 27.22° C | 59% | 1015.3 hPa | 0 mm | - | 347 W/m² | - |
| 1777324038 | 27.22° C | 59% | 1015.2 hPa | 0 mm | - | 365 W/m² | - |
| 1777323735 | 27.22° C | 59% | 1015.2 hPa | 0 mm | - | 376 W/m² | - |
| 1777323432 | 27.22° C | 59% | 1015.1 hPa | 0 mm | - | 393 W/m² | - |
| 1777323129 | 27.22° C | 59% | 1015.2 hPa | 0 mm | - | 402 W/m² | - |
| 1777322828 | 27.22° C | 59% | 1015.3 hPa | 0 mm | - | 417 W/m² | - |
| 1777322525 | 27.78° C | 59% | 1014.9 hPa | 0 mm | - | 430 W/m² | - |
| 1777322222 | 27.22° C | 59% | 1015.1 hPa | 0 mm | - | 441 W/m² | - |
* Rain latest hour (hover to see other rain measurements)
** Current wind speed in m/s (hover to see current wind gust speed)